WZZ1853 EPWR-LICC

Flight info

Callsign WZZ1853
Flight time 2h 9m
Altitude 35000
Route PEKOT2A PEKOT DCT DESEN DCT LABUK DCT XENAK DCT VEBAL DCT VELIT DCT AIOSA DCT CDC DCT DODEL/N0385F190 Q72 PIMOR PIMOR1Q
Aircraft A21N/M-V/N

Departure

Time 2026-05-05 06:17
Airport Copernicus Wrocław Airport (EPWR)

Arrival

Time 2026-05-05 08:26
Airport Catania-Fontanarossa Airport (LICC)
Time Latitude Longitude Altitude Speed Heading
2026-05-05 06:06 51.10871 16.87992 403 ft 0 kts 26°
2026-05-05 06:09 51.10858 16.87981 401 ft 2 kts 26°
2026-05-05 06:10 51.10843 16.87969 399 ft 2 kts 39°
2026-05-05 06:10 51.10829 16.87958 400 ft 2 kts
2026-05-05 06:10 51.10813 16.87959 401 ft 2 kts 357°
2026-05-05 06:10 51.10801 16.87972 400 ft 0 kts 286°
2026-05-05 06:11 51.10802 16.87968 400 ft 3 kts 284°
2026-05-05 06:12 51.10821 16.87890 403 ft 16 kts 295°
2026-05-05 06:12 51.10853 16.87784 403 ft 7 kts 295°
2026-05-05 06:12 51.10876 16.87708 403 ft 11 kts 295°
2026-05-05 06:12 51.10916 16.87583 403 ft 16 kts 297°
2026-05-05 06:13 51.10941 16.87449 403 ft 9 kts 256°
2026-05-05 06:13 51.10874 16.87370 403 ft 17 kts 206°
2026-05-05 06:13 51.10780 16.87297 403 ft 13 kts 206°
2026-05-05 06:13 51.10718 16.87232 404 ft 7 kts 227°
2026-05-05 06:14 51.10719 16.87110 404 ft 15 kts 289°
2026-05-05 06:14 51.10766 16.86949 403 ft 17 kts 296°
2026-05-05 06:14 51.10811 16.86806 403 ft 12 kts 296°
2026-05-05 06:14 51.10824 16.86660 402 ft 11 kts 279°
2026-05-05 06:15 51.10856 16.86597 402 ft 4 kts 350°
2026-05-05 06:15 51.10866 16.86618 402 ft 2 kts 63°
2026-05-05 06:15 51.10857 16.86663 402 ft 0 kts 112°
2026-05-05 06:15 51.10854 16.86670 402 ft 0 kts 116°
2026-05-05 06:16 51.10759 16.86982 403 ft 70 kts 116°
2026-05-05 06:16 51.10431 16.88053 402 ft 144 kts 116°
2026-05-05 06:16 51.09929 16.89699 918 ft 172 kts 115°
2026-05-05 06:17 51.09416 16.91412 1815 ft 177 kts 116°
2026-05-05 06:17 51.08867 16.93223 2591 ft 191 kts 117°
2026-05-05 06:17 51.08258 16.95209 3308 ft 205 kts 117°
2026-05-05 06:17 51.07568 16.97234 4221 ft 208 kts 124°
2026-05-05 06:18 51.06538 16.98802 5178 ft 206 kts 153°
2026-05-05 06:18 51.05163 16.99195 6023 ft 208 kts 182°
2026-05-05 06:18 51.03652 16.98653 6390 ft 240 kts 199°
2026-05-05 06:18 51.02022 16.97477 6763 ft 270 kts 198°
2026-05-05 06:19 51.00158 16.96789 7606 ft 279 kts 195°
2026-05-05 06:19 50.98362 16.95676 8671 ft 282 kts 207°
2026-05-05 06:19 50.96700 16.93876 9440 ft 301 kts 220°
2026-05-05 06:19 50.95131 16.91522 10195 ft 305 kts 212°
2026-05-05 06:20 50.93282 16.90249 11806 ft 288 kts 201°
2026-05-05 06:20 50.91414 16.88874 12416 ft 303 kts 213°
2026-05-05 06:20 50.89783 16.86715 13315 ft 304 kts 213°
2026-05-05 06:20 50.88073 16.84845 14351 ft 302 kts 220°
2026-05-05 06:21 50.86770 16.82157 14800 ft 321 kts 246°
2026-05-05 06:21 50.86401 16.78534 15004 ft 350 kts 273°
2026-05-05 06:21 50.87152 16.74760 15124 ft 383 kts 297°
2026-05-05 06:21 50.88982 16.71497 15482 ft 407 kts 318°
2026-05-05 06:22 50.91289 16.68895 16521 ft 405 kts 319°
2026-05-05 06:22 50.93136 16.65539 17120 ft 409 kts 296°
2026-05-05 06:22 50.93965 16.61277 17909 ft 405 kts 272°
2026-05-05 06:22 50.93662 16.56873 18632 ft 406 kts 252°
2026-05-05 06:23 50.92317 16.52891 19002 ft 416 kts 229°
2026-05-05 06:23 50.90046 16.50079 19748 ft 418 kts 207°
2026-05-05 06:23 50.87276 16.48816 20384 ft 427 kts 187°
2026-05-05 06:23 50.84292 16.49268 20950 ft 438 kts 165°
2026-05-05 06:24 50.81555 16.51494 21598 ft 448 kts 144°
2026-05-05 06:24 50.79450 16.55192 22159 ft 459 kts 123°
2026-05-05 06:24 50.78168 16.59808 22736 ft 467 kts 110°
2026-05-05 06:24 50.77255 16.64785 23289 ft 473 kts 107°
2026-05-05 06:25 50.76369 16.69817 23800 ft 477 kts 108°
2026-05-05 06:25 50.75341 16.74820 24304 ft 479 kts 111°
2026-05-05 06:25 50.74097 16.79711 24782 ft 481 kts 116°
2026-05-05 06:25 50.72586 16.84437 25255 ft 483 kts 122°
2026-05-05 06:26 50.70718 16.88760 25720 ft 483 kts 131°
2026-05-05 06:26 50.68458 16.92701 26175 ft 484 kts 137°
2026-05-05 06:26 50.66041 16.96440 26632 ft 486 kts 138°
2026-05-05 06:26 50.63625 17.00194 27069 ft 490 kts 136°
2026-05-05 06:27 50.61361 17.04238 27530 ft 494 kts 131°
2026-05-05 06:27 50.57031 17.12415 29025 ft 484 kts 134°
2026-05-05 06:27 50.54715 17.16315 29440 ft 486 kts 135°
2026-05-05 06:28 50.52452 17.20204 30003 ft 486 kts 134°
2026-05-05 06:28 50.50249 17.24218 30549 ft 483 kts 133°
2026-05-05 06:28 50.48039 17.28217 30981 ft 482 kts 134°
2026-05-05 06:28 50.45801 17.32096 31742 ft 474 kts 135°
2026-05-05 06:29 50.43582 17.35941 32037 ft 477 kts 134°
2026-05-05 06:29 50.41380 17.39848 32419 ft 477 kts 134°
2026-05-05 06:29 50.39043 17.43444 32716 ft 474 kts 147°
2026-05-05 06:29 50.36197 17.45981 33117 ft 466 kts 160°
2026-05-05 06:30 50.33184 17.47899 33511 ft 466 kts 161°
2026-05-05 06:30 50.30142 17.49749 33844 ft 466 kts 162°
2026-05-05 06:30 50.27095 17.51121 34310 ft 457 kts 175°
2026-05-05 06:30 50.23946 17.51293 34681 ft 451 kts 186°
2026-05-05 06:31 50.20797 17.50869 34728 ft 455 kts 188°
2026-05-05 06:31 50.17625 17.50369 34901 ft 457 kts 188°
2026-05-05 06:31 50.14460 17.49916 34888 ft 463 kts 187°
2026-05-05 06:32 50.08073 17.49077 34884 ft 456 kts 188°
2026-05-05 06:32 50.01778 17.48173 34889 ft 456 kts 187°
2026-05-05 06:33 49.95431 17.47316 34887 ft 457 kts 187°
2026-05-05 06:33 49.89114 17.46434 34891 ft 458 kts 187°
2026-05-05 06:34 49.83835 17.45714 34903 ft 458 kts 187°
2026-05-05 06:34 49.77466 17.44838 34895 ft 458 kts 187°
2026-05-05 06:35 49.71123 17.43971 34898 ft 457 kts 187°
2026-05-05 06:35 49.64798 17.43109 34892 ft 458 kts 187°
2026-05-05 06:36 49.58433 17.42243 34897 ft 458 kts 187°
2026-05-05 06:36 49.52108 17.41384 34896 ft 457 kts 187°
2026-05-05 06:37 49.45787 17.40797 34897 ft 457 kts 186°
2026-05-05 06:37 49.39416 17.40187 34896 ft 457 kts 185°
2026-05-05 06:38 49.33080 17.39712 34902 ft 458 kts 185°
2026-05-05 06:38 49.26723 17.39163 34906 ft 458 kts 185°
2026-05-05 06:39 49.20340 17.38657 34913 ft 458 kts 185°
2026-05-05 06:39 49.13955 17.38124 34914 ft 458 kts 185°
2026-05-05 06:40 49.07624 17.37615 34920 ft 457 kts 185°
2026-05-05 06:40 49.01267 17.37095 34919 ft 457 kts 185°
2026-05-05 06:41 48.94904 17.36581 34919 ft 458 kts 185°
2026-05-05 06:41 48.88525 17.36063 34913 ft 459 kts 185°
2026-05-05 06:42 48.82159 17.35551 34909 ft 460 kts 185°
2026-05-05 06:42 48.75763 17.35035 34906 ft 459 kts 185°
2026-05-05 06:43 48.69408 17.34527 34910 ft 459 kts 185°
2026-05-05 06:43 48.63041 17.34015 34910 ft 460 kts 185°
2026-05-05 06:44 48.56623 17.33505 34910 ft 461 kts 185°
2026-05-05 06:44 48.50228 17.32993 34905 ft 462 kts 185°
2026-05-05 06:45 48.43791 17.32484 34910 ft 462 kts 185°
2026-05-05 06:45 48.37411 17.31977 34918 ft 461 kts 185°
2026-05-05 06:46 48.30988 17.31470 34918 ft 462 kts 185°
2026-05-05 06:46 48.24553 17.30963 34921 ft 463 kts 185°
2026-05-05 06:47 48.18141 17.30459 34921 ft 463 kts 185°
2026-05-05 06:47 48.11675 17.29976 34916 ft 465 kts 182°
2026-05-05 06:48 48.05193 17.29985 34918 ft 466 kts 182°
2026-05-05 06:48 47.98743 17.29936 34916 ft 465 kts 181°
2026-05-05 06:49 47.92265 17.29953 34917 ft 465 kts 182°
2026-05-05 06:49 47.85798 17.29926 34916 ft 464 kts 182°
2026-05-05 06:50 47.79374 17.29926 34913 ft 463 kts 182°
2026-05-05 06:50 47.72926 17.29911 34921 ft 463 kts 182°
2026-05-05 06:51 47.66475 17.29903 34924 ft 463 kts 182°
2026-05-05 06:51 47.60015 17.29894 34932 ft 464 kts 182°
2026-05-05 06:52 47.53599 17.29883 34936 ft 463 kts 182°
2026-05-05 06:52 47.47129 17.29875 34944 ft 464 kts 182°
2026-05-05 06:53 47.40688 17.29862 34940 ft 466 kts 182°
2026-05-05 06:53 47.34180 17.29856 34943 ft 467 kts 182°
2026-05-05 06:54 47.27678 17.29845 34949 ft 466 kts 182°
2026-05-05 06:54 47.21207 17.29834 34947 ft 467 kts 182°
2026-05-05 06:55 47.14703 17.29827 34948 ft 466 kts 182°
2026-05-05 06:55 47.08228 17.29816 34953 ft 466 kts 182°
2026-05-05 06:56 47.01729 17.29807 34961 ft 466 kts 182°
2026-05-05 06:56 46.95255 17.29796 34974 ft 467 kts 182°
2026-05-05 06:57 46.88759 17.29788 34983 ft 469 kts 182°
2026-05-05 06:57 46.82232 17.29779 34993 ft 468 kts 182°
2026-05-05 06:58 46.75693 17.29768 35001 ft 468 kts 182°
2026-05-05 06:58 46.69204 17.29759 35001 ft 468 kts 182°
2026-05-05 06:59 46.62664 17.29750 35000 ft 469 kts 182°
2026-05-05 06:59 46.56155 17.29739 34997 ft 469 kts 182°
2026-05-05 07:00 46.49627 17.29732 34993 ft 468 kts 182°
2026-05-05 07:00 46.43098 17.29721 34997 ft 468 kts 182°
2026-05-05 07:01 46.36606 17.29710 35002 ft 469 kts 182°
2026-05-05 07:01 46.30069 17.29703 35001 ft 470 kts 182°
2026-05-05 07:02 46.23552 17.29693 35001 ft 470 kts 182°
2026-05-05 07:02 46.16996 17.29684 35010 ft 469 kts 182°
2026-05-05 07:03 46.10479 17.29674 35009 ft 469 kts 182°
2026-05-05 07:03 46.03950 17.29665 35013 ft 469 kts 182°
2026-05-05 07:04 45.97397 17.29654 35013 ft 471 kts 182°
2026-05-05 07:04 45.90875 17.29590 35026 ft 472 kts 182°
2026-05-05 07:05 45.84289 17.29547 35020 ft 471 kts 182°
2026-05-05 07:05 45.77772 17.29493 35014 ft 470 kts 182°
2026-05-05 07:06 45.71222 17.29446 35020 ft 471 kts 182°
2026-05-05 07:06 45.64654 17.29395 35026 ft 473 kts 182°
2026-05-05 07:07 45.58109 17.29345 35034 ft 473 kts 182°
2026-05-05 07:07 45.51511 17.29296 35033 ft 472 kts 183°
2026-05-05 07:08 45.44968 17.29246 35040 ft 472 kts 183°
2026-05-05 07:08 45.38376 17.29197 35039 ft 472 kts 183°
2026-05-05 07:09 45.31789 17.29146 35043 ft 473 kts 183°
2026-05-05 07:09 45.25232 17.29098 35047 ft 474 kts 183°
2026-05-05 07:10 45.18611 17.29050 35053 ft 475 kts 183°
2026-05-05 07:10 45.12033 17.28999 35054 ft 475 kts 183°
2026-05-05 07:11 45.05388 17.28950 35057 ft 476 kts 183°
2026-05-05 07:11 44.98747 17.28901 35054 ft 477 kts 183°
2026-05-05 07:12 44.92142 17.28852 35058 ft 477 kts 183°
2026-05-05 07:12 44.85510 17.28805 35057 ft 475 kts 183°
2026-05-05 07:13 44.78919 17.28754 35056 ft 475 kts 183°
2026-05-05 07:13 44.72275 17.28706 35056 ft 476 kts 183°
2026-05-05 07:14 44.65684 17.28658 35058 ft 477 kts 183°
2026-05-05 07:14 44.59049 17.28608 35064 ft 477 kts 183°
2026-05-05 07:15 44.52439 17.28562 35063 ft 476 kts 183°
2026-05-05 07:15 44.45797 17.28511 35068 ft 476 kts 183°
2026-05-05 07:16 44.39204 17.28465 35075 ft 476 kts 183°
2026-05-05 07:16 44.32555 17.28416 35078 ft 476 kts 183°
2026-05-05 07:17 44.25956 17.28368 35086 ft 476 kts 183°
2026-05-05 07:17 44.19330 17.28321 35090 ft 474 kts 183°
2026-05-05 07:18 44.12750 17.28272 35095 ft 475 kts 183°
2026-05-05 07:18 44.06122 17.28226 35091 ft 475 kts 183°
2026-05-05 07:19 43.99546 17.28179 35102 ft 475 kts 184°
2026-05-05 07:19 43.92917 17.28130 35107 ft 476 kts 184°
2026-05-05 07:20 43.86271 17.28084 35103 ft 477 kts 184°
2026-05-05 07:20 43.79669 17.28036 35113 ft 477 kts 184°
2026-05-05 07:21 43.73002 17.27989 35107 ft 479 kts 184°
2026-05-05 07:21 43.66371 17.27943 35120 ft 478 kts 184°
2026-05-05 07:22 43.59711 17.27894 35120 ft 478 kts 185°
2026-05-05 07:22 43.53034 17.27848 35112 ft 480 kts 185°
2026-05-05 07:23 43.46370 17.27801 35117 ft 482 kts 185°
2026-05-05 07:23 43.40771 17.27762 35119 ft 483 kts 185°
2026-05-05 07:24 43.32944 17.27701 35117 ft 483 kts 186°
2026-05-05 07:24 43.27336 17.27555 35118 ft 483 kts 186°
2026-05-05 07:25 43.20599 17.27422 35120 ft 483 kts 186°
2026-05-05 07:25 43.13909 17.27283 35123 ft 483 kts 186°
2026-05-05 07:26 43.07167 17.27142 35116 ft 483 kts 186°
2026-05-05 07:26 43.00439 17.27006 35116 ft 482 kts 186°
2026-05-05 07:27 42.93716 17.26867 35111 ft 484 kts 186°
2026-05-05 07:27 42.87003 17.26729 35109 ft 484 kts 186°
2026-05-05 07:28 42.80258 17.26593 35106 ft 484 kts 186°
2026-05-05 07:28 42.73535 17.26455 35106 ft 484 kts 186°
2026-05-05 07:29 42.66766 17.26318 35108 ft 485 kts 186°
2026-05-05 07:29 42.60048 17.26181 35105 ft 485 kts 186°
2026-05-05 07:30 42.53289 17.26044 35105 ft 485 kts 186°
2026-05-05 07:30 42.43169 17.25839 35100 ft 488 kts 186°
2026-05-05 07:31 42.36364 17.25702 35101 ft 490 kts 186°
2026-05-05 07:31 42.29582 17.25568 35103 ft 489 kts 186°
2026-05-05 07:32 42.22759 17.25429 35096 ft 488 kts 186°
2026-05-05 07:32 42.15959 17.25295 35095 ft 488 kts 186°
2026-05-05 07:33 42.09188 17.25158 35098 ft 490 kts 186°
2026-05-05 07:33 42.02355 17.25023 35101 ft 490 kts 186°
2026-05-05 07:34 41.95527 17.24887 35097 ft 490 kts 186°
2026-05-05 07:34 41.88880 17.23707 35093 ft 480 kts 198°
2026-05-05 07:35 41.82350 17.21775 35083 ft 479 kts 198°
2026-05-05 07:35 41.75861 17.19917 35083 ft 478 kts 198°
2026-05-05 07:36 41.69368 17.18027 35084 ft 479 kts 198°
2026-05-05 07:36 41.62846 17.16153 35084 ft 478 kts 198°
2026-05-05 07:37 41.56350 17.14280 35079 ft 478 kts 197°
2026-05-05 07:37 41.49826 17.12406 35079 ft 478 kts 198°
2026-05-05 07:38 41.43302 17.10537 35070 ft 479 kts 197°
2026-05-05 07:38 41.36824 17.08682 35076 ft 479 kts 197°
2026-05-05 07:39 41.30293 17.06818 35076 ft 479 kts 197°
2026-05-05 07:39 41.23801 17.04968 35075 ft 478 kts 197°
2026-05-05 07:40 41.17294 17.03117 35073 ft 477 kts 197°
2026-05-05 07:40 41.10790 17.01273 35072 ft 476 kts 197°
2026-05-05 07:41 41.04335 16.99443 35075 ft 477 kts 197°
2026-05-05 07:41 40.97823 16.97604 35104 ft 478 kts 197°
2026-05-05 07:42 40.91349 16.95777 35115 ft 479 kts 197°
2026-05-05 07:42 40.84822 16.93940 35121 ft 478 kts 197°
2026-05-05 07:43 40.78317 16.92113 35121 ft 477 kts 197°
2026-05-05 07:43 40.71862 16.90303 35122 ft 477 kts 197°
2026-05-05 07:44 40.65346 16.88479 35121 ft 478 kts 197°
2026-05-05 07:44 40.58862 16.86669 35114 ft 479 kts 197°
2026-05-05 07:45 40.52326 16.84847 35163 ft 480 kts 197°
2026-05-05 07:45 40.45782 16.83026 35181 ft 480 kts 197°
2026-05-05 07:46 40.39284 16.81224 35192 ft 479 kts 197°
2026-05-05 07:46 40.32762 16.79416 35188 ft 479 kts 197°
2026-05-05 07:47 40.26243 16.77614 35171 ft 478 kts 197°
2026-05-05 07:47 40.19715 16.75812 35156 ft 479 kts 197°
2026-05-05 07:48 40.13174 16.74011 35132 ft 480 kts 197°
2026-05-05 07:48 40.06666 16.72222 35109 ft 481 kts 197°
2026-05-05 07:49 40.00089 16.70417 35100 ft 482 kts 197°
2026-05-05 07:49 39.93517 16.68619 35107 ft 481 kts 197°
2026-05-05 07:50 39.86979 16.66832 35113 ft 480 kts 197°
2026-05-05 07:50 39.80471 16.65056 35122 ft 480 kts 197°
2026-05-05 07:51 39.73915 16.63272 35132 ft 480 kts 197°
2026-05-05 07:51 39.67390 16.61499 35140 ft 481 kts 197°
2026-05-05 07:52 39.60820 16.59718 35151 ft 482 kts 197°
2026-05-05 07:52 39.54229 16.57935 35162 ft 482 kts 197°
2026-05-05 07:53 39.47715 16.56174 35169 ft 481 kts 197°
2026-05-05 07:53 39.41146 16.54405 35178 ft 480 kts 197°
2026-05-05 07:54 39.34612 16.52645 35183 ft 482 kts 197°
2026-05-05 07:54 39.28025 16.50876 35188 ft 484 kts 197°
2026-05-05 07:55 39.21421 16.49107 35185 ft 484 kts 197°
2026-05-05 07:55 39.14877 16.47356 35166 ft 483 kts 197°
2026-05-05 07:56 39.08298 16.45599 35145 ft 483 kts 197°
2026-05-05 07:56 39.01691 16.43838 35125 ft 485 kts 197°
2026-05-05 07:57 38.95076 16.42080 35111 ft 484 kts 197°
2026-05-05 07:57 38.88491 16.40329 35113 ft 486 kts 197°
2026-05-05 07:58 38.81888 16.38582 35113 ft 487 kts 197°
2026-05-05 07:58 38.75233 16.36859 35119 ft 489 kts 193°
2026-05-05 07:59 38.68438 16.35818 35134 ft 491 kts 192°
2026-05-05 07:59 38.61676 16.34742 35139 ft 492 kts 192°
2026-05-05 08:00 38.54875 16.33704 35139 ft 492 kts 192°
2026-05-05 08:00 38.48071 16.32641 35134 ft 492 kts 192°
2026-05-05 08:01 38.41282 16.31599 35126 ft 492 kts 192°
2026-05-05 08:01 38.34467 16.30542 35122 ft 493 kts 192°
2026-05-05 08:02 38.27676 16.29506 35120 ft 493 kts 192°
2026-05-05 08:02 38.24309 16.28990 34580 ft 484 kts 192°
2026-05-05 08:02 38.20950 16.28468 33846 ft 491 kts 192°
2026-05-05 08:03 38.14109 16.27417 33768 ft 505 kts 192°
2026-05-05 08:03 38.10641 16.26896 33742 ft 492 kts 192°
2026-05-05 08:03 38.07270 16.26386 32956 ft 486 kts 192°
2026-05-05 08:04 38.03918 16.25861 32177 ft 482 kts 192°
2026-05-05 08:04 38.00604 16.25353 31498 ft 476 kts 191°
2026-05-05 08:04 37.97322 16.24860 30722 ft 473 kts 191°
2026-05-05 08:04 37.94109 16.24371 30057 ft 467 kts 191°
2026-05-05 08:05 37.90881 16.23876 29200 ft 464 kts 191°
2026-05-05 08:05 37.87692 16.23391 28504 ft 457 kts 191°
2026-05-05 08:05 37.84548 16.22916 27732 ft 453 kts 191°
2026-05-05 08:05 37.81433 16.22441 26993 ft 448 kts 191°
2026-05-05 08:06 37.78351 16.21973 26279 ft 444 kts 191°
2026-05-05 08:06 37.75329 16.21517 25617 ft 439 kts 191°
2026-05-05 08:06 37.72311 16.21059 24957 ft 434 kts 190°
2026-05-05 08:06 37.69336 16.20609 24433 ft 426 kts 190°
2026-05-05 08:07 37.66435 16.19968 23688 ft 419 kts 202°
2026-05-05 08:07 37.63850 16.18405 22943 ft 406 kts 218°
2026-05-05 08:07 37.61780 16.16119 22231 ft 394 kts 233°
2026-05-05 08:07 37.60290 16.13270 21489 ft 384 kts 248°
2026-05-05 08:08 37.59457 16.10115 20796 ft 375 kts 262°
2026-05-05 08:08 37.59142 16.06875 20101 ft 371 kts 267°
2026-05-05 08:08 37.58889 16.03651 19433 ft 368 kts 266°
2026-05-05 08:08 37.58627 16.00452 18804 ft 365 kts 266°
2026-05-05 08:09 37.58359 15.97288 18129 ft 362 kts 266°
2026-05-05 08:09 37.58095 15.94141 17419 ft 359 kts 266°
2026-05-05 08:09 37.57838 15.91059 16754 ft 356 kts 266°
2026-05-05 08:09 37.57578 15.87964 16084 ft 353 kts 266°
2026-05-05 08:10 37.57412 15.84890 15424 ft 349 kts 272°
2026-05-05 08:10 37.57455 15.81838 14774 ft 346 kts 273°
2026-05-05 08:10 37.57500 15.78835 14154 ft 344 kts 272°
2026-05-05 08:10 37.57521 15.75830 13486 ft 342 kts 272°
2026-05-05 08:11 37.57533 15.73832 13040 ft 340 kts 272°
2026-05-05 08:11 37.57560 15.70870 12405 ft 336 kts 272°
2026-05-05 08:11 37.57589 15.67932 11772 ft 334 kts 272°
2026-05-05 08:11 37.57613 15.65012 11158 ft 331 kts 272°
2026-05-05 08:12 37.57636 15.62177 10976 ft 327 kts 272°
2026-05-05 08:12 37.57662 15.59227 11010 ft 337 kts 272°
2026-05-05 08:12 37.57684 15.56264 10998 ft 333 kts 272°
2026-05-05 08:12 37.57702 15.53446 10985 ft 311 kts 272°
2026-05-05 08:13 37.57722 15.50816 10995 ft 290 kts 272°
2026-05-05 08:13 37.57740 15.48369 10975 ft 274 kts 272°
2026-05-05 08:13 37.57757 15.45979 10480 ft 274 kts 272°
2026-05-05 08:13 37.57776 15.43547 9927 ft 278 kts 272°
2026-05-05 08:14 37.57779 15.41126 9494 ft 274 kts 269°
2026-05-05 08:14 37.57710 15.38748 8996 ft 273 kts 271°
2026-05-05 08:14 37.57715 15.36349 8513 ft 272 kts 271°
2026-05-05 08:14 37.57706 15.33964 8050 ft 271 kts 270°
2026-05-05 08:15 37.57666 15.31587 7583 ft 271 kts 270°
2026-05-05 08:15 37.57629 15.29218 7137 ft 269 kts 270°
2026-05-05 08:15 37.57601 15.26880 6714 ft 268 kts 270°
2026-05-05 08:15 37.57570 15.24534 6258 ft 267 kts 269°
2026-05-05 08:16 37.57536 15.22206 5984 ft 258 kts 269°
2026-05-05 08:16 37.57506 15.20024 5994 ft 241 kts 269°
2026-05-05 08:16 37.57476 15.17934 6036 ft 232 kts 269°
2026-05-05 08:16 37.57447 15.15970 6014 ft 220 kts 269°
2026-05-05 08:17 37.57361 15.14063 5725 ft 218 kts 263°
2026-05-05 08:17 37.57184 15.12156 5358 ft 218 kts 264°
2026-05-05 08:17 37.57044 15.10254 5048 ft 216 kts 264°
2026-05-05 08:17 37.56898 15.08399 4716 ft 215 kts 264°
2026-05-05 08:18 37.56738 15.06519 4363 ft 215 kts 263°
2026-05-05 08:18 37.56581 15.04650 4062 ft 212 kts 264°
2026-05-05 08:18 37.56432 15.02876 4071 ft 193 kts 264°
2026-05-05 08:18 37.56295 15.01299 3980 ft 179 kts 263°
2026-05-05 08:19 37.56164 14.99696 3620 ft 187 kts 264°
2026-05-05 08:19 37.56021 14.98104 3593 ft 173 kts 263°
2026-05-05 08:19 37.55845 14.96595 3583 ft 178 kts 257°
2026-05-05 08:19 37.55409 14.95169 3583 ft 175 kts 242°
2026-05-05 08:20 37.54747 14.93881 3597 ft 176 kts 235°
2026-05-05 08:20 37.54022 14.92621 3586 ft 179 kts 233°
2026-05-05 08:20 37.53081 14.91624 3581 ft 179 kts 206°
2026-05-05 08:20 37.51912 14.91045 3626 ft 180 kts 202°
2026-05-05 08:21 37.50720 14.90528 3677 ft 182 kts 196°
2026-05-05 08:21 37.49467 14.90451 3717 ft 183 kts 176°
2026-05-05 08:21 37.48196 14.90602 3724 ft 183 kts 176°
2026-05-05 08:21 37.46953 14.90859 3569 ft 183 kts 157°
2026-05-05 08:22 37.46148 14.92019 3412 ft 180 kts 106°
2026-05-05 08:22 37.46167 14.93570 3275 ft 174 kts 85°
2026-05-05 08:22 37.46153 14.95092 3013 ft 172 kts 96°
2026-05-05 08:22 37.46016 14.96591 2730 ft 172 kts 95°
2026-05-05 08:23 37.45982 14.98082 2323 ft 173 kts 89°
2026-05-05 08:23 37.46093 14.99613 1945 ft 175 kts 81°
2026-05-05 08:23 37.46394 15.01030 1819 ft 157 kts 55°
2026-05-05 08:23 37.47284 15.01705 1804 ft 161 kts
2026-05-05 08:24 37.48261 15.01311 1860 ft 155 kts 316°
2026-05-05 08:24 37.48762 15.00131 1898 ft 155 kts 276°
2026-05-05 08:24 37.48521 14.98892 1755 ft 147 kts 234°
2026-05-05 08:24 37.47645 14.98261 1447 ft 151 kts 189°
2026-05-05 08:25 37.46635 14.98538 1301 ft 152 kts 151°
2026-05-05 08:25 37.45960 14.99520 1075 ft 152 kts 117°
2026-05-05 08:25 37.45745 15.00846 791 ft 157 kts 80°
2026-05-05 08:25 37.46131 15.02244 689 ft 176 kts 69°
2026-05-05 08:26 37.46439 15.03650 468 ft 164 kts 82°
2026-05-05 08:26 37.46549 15.05074 104 ft 161 kts 84°
2026-05-05 08:26 37.46653 15.06340 37 ft 107 kts 85°
2026-05-05 08:26 37.46698 15.06850 36 ft 16 kts 74°
2026-05-05 08:27 37.46758 15.06897 35 ft 9 kts
2026-05-05 08:27 37.46808 15.06894 33 ft 5 kts 340°
2026-05-05 08:27 37.46856 15.06874 32 ft 7 kts 346°
2026-05-05 08:27 37.46891 15.06868 32 ft 2 kts 355°
2026-05-05 08:28 37.46918 15.06866 32 ft 5 kts 355°
2026-05-05 08:28 37.46944 15.06863 32 ft 0 kts 353°